sat.trackr.live / text

‹ back to catalog

USA 286

NORAD 43446 · 2018-036F

PAYLOAD ACTIVE UNKNOWN

§ Identity

Operator
Country
US
Launch date
2018-04-14
Launch site
AFETR
Launch vehicle
Mass (kg)
RCS (m²)

External: N2YO · Heavens-Above · Gunter

§ Orbital elements

Epoch: 2026-05-22T22:45:44.165376Z

Period
1,410.11 min
Inclination
7.0560°
Eccentricity
0.0010642
Mean motion
1.02119637 rev/d
Perigee alt
35,232.1 km
Apogee alt
35,320.7 km
Semi-major
41,654.5 km
B*
0.0000e+0
RAAN
67.2228°
Arg perigee
166.5711°
Mean anomaly
1.2727°
Rev number
2,666

§ Raw data

USA 2861 43446U 18036F   26142.94842784  .00000004  00000+0  00000+0 0  99922 43446   7.0560  67.2228 0010642 166.5711   1.2727  1.02119637 26667

JSON: /api/v1/satellites/43446 · /tle

For live sub-satellite position, see the globe view (requires WebGL).

§ Visibility from observer

Set your observer location to see the next 7 days of passes ≥ 10°. The values pass through the URL so the page stays shareable.

No JS? Fill the form by hand. The geolocation button needs JavaScript.